1515913200.58,44001,7.56,73372.3,-16.61,-18.21,-18.49,0,*6F
1515913201.82,44002,7.56,73372.8,-16.61,-18.21,-18.49,0,*6C
1515913203.05,44003,7.5,73374.3,-16.61,-18.21,-18.49,0,*6D
1515913204.29,44004,7.56,73374.0,-16.61,-18.21,-18.49,0,*6A
1515913205.51,44005,7.5,73372.3,-16.59,-18.21,-18.49,0,*60
1515913206.72,44006,7.56,73378.5,-16.59,-18.11,-18.49,0,*60
1515913207.93,44007,7.5,73372.3,-16.59,-18.11,-18.49,0,*61
1515913209.14,44008,7.56,73376.0,-16.59,-18.21,-18.41,0,*65
1515913210.36,44009,7.5,73372.3,-16.59,-18.11,-18.49,0,*6F
1515913211.6,44010,7.56,73372.5,-16.59,-18.35,-18.49,0,*61
1515913212.86,44011,7.56,73374.8,-16.61,-18.21,-18.55,0,*63
1515913214.09,44012,7.5,73370.8,-16.61,-18.21,-18.41,0,*65
1515913215.33,44013,7.56,73378.3,-16.61,-18.21,-18.49,0,*6C
1515913216.57,44014,7.56,73376.0,-16.61,-18.21,-18.49,0,*6B
1515913217.83,44015,7.5,73374.8,-16.61,-18.21,-18.55,0,*67
1515913219.07,44016,7.56,73376.3,-16.61,-18.11,-18.49,0,*6A
1515913220.3,44017,7.56,73376.3,-16.61,-18.25,-18.49,0,*6C
1515913221.54,44018,7.5,73372.0,-16.61,-18.25,-18.49,0,*63
1515913222.8,44019,7.5,73372.5,-16.61,-18.21,-18.55,0,*6B
1515913224.04,44020,7.56,73378.8,-16.61,-18.25,-18.49,0,*68
1515913225.3,44021,7.56,73374.5,-16.61,-18.21,-18.55,0,*60
1515913226.56,44022,7.56,73372.8,-16.61,-18.21,-18.55,0,*63
1515913227.82,44023,7.56,73378.5,-16.61,-18.21,-18.55,0,*62
1515913229.08,44024,7.56,73374.0,-16.61,-18.21,-18.55,0,*65
1515913230.34,44025,7.5,73374.5,-16.61,-18.25,-18.55,0,*60
1515913231.6,44026,7.56,73378.8,-16.61,-18.21,-18.55,0,*67
1515913232.85,44027,7.5,73374.5,-16.61,-18.21,-18.59,0,*6A
1515913234.11,44028,7.56,73374.5,-16.61,-18.21,-18.55,0,*69
1515913235.37,44029,7.56,73374.5,-16.61,-18.25,-18.55,0,*6C
1515913236.63,44030,7.56,73376.5,-16.61,-18.25,-18.55,0,*64
1515913237.87,44031,7.56,73374.8,-16.61,-18.21,-18.49,0,*6C
1515913239.13,44032,7.5,73368.8,-16.61,-18.21,-18.55,0,*62
1515913240.39,44033,7.56,73376.0,-16.61,-18.11,-18.55,0,*60
1515913241.65,44034,7.56,73376.5,-16.61,-18.25,-18.55,0,*60
1515913242.91,44035,7.56,73372.3,-16.61,-18.25,-18.55,0,*61
1515913244.17,44036,7.56,73372.8,-16.61,-18.21,-18.55,0,*66
1515913245.43,44037,7.56,73372.8,-16.61,-18.25,-18.55,0,*63
1515913246.67,44038,7.56,73374.5,-16.61,-18.21,-18.49,0,*65
1515913247.91,44039,7.56,73372.3,-16.61,-18.21,-18.49,0,*64
1515913249.17,44040,7.56,73372.3,-16.61,-18.21,-18.55,0,*67
1515913250.43,44041,7.56,73372.5,-16.61,-18.25,-18.55,0,*62
1515913251.68,44042,7.5,73374.8,-16.61,-18.25,-18.59,0,*6D
1515913252.91,44043,7.56,73374.5,-16.63,-18.25,-18.59,0,*6E
1515913254.17,44044,7.56,73376.3,-16.63,-18.31,-18.55,0,*60
1515913255.41,44045,7.56,73376.8,-16.61,-18.21,-18.49,0,*6F
1515913256.67,44046,7.5,73372.3,-16.61,-18.21,-18.55,0,*61
1515913257.91,44047,7.5,73374.8,-16.61,-18.21,-18.49,0,*6D
1515913259.12,44048,7.5,73374.5,-16.63,-18.17,-18.65,0,*6B
1515913260.36,44049,7.56,73374.8,-16.63,-18.25,-18.55,0,*68
1515913261.59,44050,7.56,73376.3,-16.61,-18.21,-18.49,0,*6B
1515913262.83,44051,7.56,73374.5,-16.61,-18.21,-18.49,0,*6A
1515913264.09,44052,7.5,73372.8,-16.61,-18.35,-18.49,0,*6C
1515913265.35,44053,7.56,73374.5,-16.61,-18.21,-18.55,0,*65
1515913266.58,44054,7.56,73374.5,-16.63,-18.25,-18.59,0,*68
1515913267.85,44055,7.5,73372.0,-16.63,-18.31,-18.55,0,*60
1515913269.11,44056,7.56,73372.5,-16.63,-18.31,-18.59,0,*6F
1515913270.36,44057,7.5,73374.3,-16.65,-18.25,-18.59,0,*6D
1515913271.62,44058,7.56,73374.5,-16.59,-18.35,-18.55,0,*60
1515913272.88,44059,7.56,73376.3,-16.61,-18.21,-18.55,0,*6F
1515913274.12,44060,7.5,73372.0,-16.63,-18.17,-18.55,0,*62
1515913275.35,44061,7.56,73378.3,-16.63,-18.17,-18.55,0,*63
1515913276.59,44062,7.5,73374.8,-16.63,-18.25,-18.55,0,*61
1515913277.82,44063,7.56,73372.3,-16.63,-18.17,-18.55,0,*61
1515913279.05,44064,7.56,73374.0,-16.63,-18.25,-18.55,0,*67
1515913280.34,44065,7.56,73372.8,-16.65,-18.31,-18.55,0,*65
1515913281.58,44066,7.5,73372.0,-16.63,-18.25,-18.55,0,*65
1515913282.8,44067,7.56,73374.0,-16.63,-18.25,-18.59,0,*68
1515913284.06,44068,7.5,73372.0,-16.65,-18.17,-18.55,0,*6C
1515913285.32,44069,7.56,73376.3,-16.65,-18.17,-18.55,0,*6D
1515913286.58,44070,7.56,73374.8,-16.63,-18.31,-18.59,0,*6B
1515913287.81,44071,7.56,73374.5,-16.63,-18.17,-18.59,0,*6E
1515913289.04,44072,7.56,73376.5,-16.63,-18.25,-18.55,0,*60
1515913290.28,44073,7.5,73374.5,-16.63,-18.25,-18.55,0,*61
1515913291.56,44074,7.56,73374.0,-16.65,-18.31,-18.59,0,*69
1515913292.77,44075,7.56,73372.8,-16.63,-18.25,-18.65,0,*64
1515913293.98,44076,7.5,73374.8,-16.63,-18.25,-18.65,0,*67
1515913295.21,44077,7.56,73376.3,-16.63,-18.17,-18.59,0,*68
1515913296.49,44078,7.56,73376.3,-16.65,-18.31,-18.59,0,*65
1515913297.78,44079,7.5,73372.3,-16.65,-18.31,-18.59,0,*64
1515913299.06,44080,7.5,73372.0,-16.65,-18.31,-18.59,0,*62
1515913300.29,44081,7.5,73372.8,-16.63,-18.25,-18.59,0,*60
1515913301.5,44082,7.56,73378.5,-16.63,-18.41,-18.65,0,*6E
1515913302.76,44083,7.56,73372.8,-16.63,-18.31,-18.59,0,*67
1515913303.99,44084,7.56,73378.8,-16.63,-18.25,-18.59,0,*65
1515913305.27,44085,7.56,73376.3,-16.65,-18.31,-18.59,0,*67
1515913306.53,44086,7.5,73372.0,-16.63,-18.31,-18.55,0,*6E
1515913307.79,44087,7.56,73372.8,-16.65,-18.41,-18.59,0,*62
1515913309.06,44088,7.56,73376.3,-16.65,-18.31,-18.65,0,*65
1515913310.31,44089,7.5,73374.0,-16.65,-18.41,-18.59,0,*6C
1515913311.56,44090,7.56,73374.5,-16.65,-18.25,-18.59,0,*66
1515913312.81,44091,7.56,73374.5,-16.63,-18.31,-18.65,0,*6B
1515913314.04,44092,7.56,73374.3,-16.63,-18.41,-18.55,0,*6C
1515913315.28,44093,7.5,73372.0,-16.65,-18.25,-18.65,0,*6A
1515913316.51,44094,7.56,73374.0,-16.63,-18.41,-18.59,0,*66
1515913317.79,44095,7.56,73374.8,-16.65,-18.31,-18.59,0,*66
1515913319.07,44096,7.56,73374.0,-16.65,-18.31,-18.59,0,*65
1515913320.36,44097,7.56,73376.5,-16.65,-18.31,-18.59,0,*64
1515913321.62,44098,7.5,73372.5,-16.63,-18.31,-18.55,0,*61
1515913322.89,44099,7.56,73378.3,-16.65,-18.31,-18.65,0,*65
1515913324.12,44100,7.5,73374.0,-16.65,-18.25,-18.65,0,*61
1515913325.38,44101,7.5,73374.0,-16.65,-18.25,-18.59,0,*6F
1515913326.64,44102,7.5,73372.5,-16.67,-18.31,-18.59,0,*6B
1515913327.89,44103,7.5,73372.0,-16.65,-18.25,-18.59,0,*6D
1515913329.12,44104,7.56,73374.8,-16.65,-18.25,-18.45,0,*67
1515913330.36,44105,7.56,73376.0,-16.65,-18.25,-18.45,0,*66
1515913331.61,44106,7.5,73372.0,-16.65,-18.17,-18.59,0,*69
1515913332.9,44107,7.56,73372.0,-16.65,-18.31,-18.55,0,*60
1515913334.16,44108,7.56,73372.5,-16.65,-18.25,-18.55,0,*6A
1515913335.39,44109,7.5,73372.8,-16.63,-18.25,-18.55,0,*6D
1515913336.63,44110,7.56,73372.3,-16.65,-18.25,-18.45,0,*62
1515913337.88,44111,7.56,73380.3,-16.65,-18.25,-18.55,0,*62
1515913339.13,44112,7.5,73372.5,-16.65,-18.25,-18.59,0,*6D
1515913340.35,44113,7.56,73372.3,-16.63,-18.25,-18.45,0,*67
1515913341.58,44114,7.56,73376.0,-16.65,-18.17,-18.45,0,*67
1515913342.87,44115,7.5,73372.5,-16.65,-18.31,-18.55,0,*63
1515913344.11,44116,7.56,73374.3,-16.65,-18.17,-18.45,0,*65
1515913345.34,44117,7.56,73378.3,-16.65,-18.17,-18.45,0,*64
1515913346.6,44118,7.5,73370.0,-16.65,-18.25,-18.55,0,*6B
1515913347.86,44119,7.56,73376.0,-16.65,-18.25,-18.55,0,*6A
1515913349.12,44120,7.56,73376.0,-16.65,-18.25,-18.55,0,*60
1515913350.35,44121,7.56,73374.8,-16.65,-18.25,-18.45,0,*60
1515913351.58,44122,7.56,73374.0,-16.65,-18.25,-18.45,0,*63
1515913352.82,44123,7.5,73374.8,-16.63,-18.25,-18.55,0,*65
1515913354.08,44124,7.56,73376.0,-16.65,-18.25,-18.55,0,*64
1515913355.33,44125,7.56,73372.5,-16.65,-18.25,-18.55,0,*65
1515913356.55,44126,7.56,73374.8,-16.63,-18.17,-18.45,0,*60
1515913357.78,44127,7.56,73374.5,-16.65,-18.25,-18.45,0,*66
1515913359.04,44128,7.56,73374.5,-16.65,-18.11,-18.55,0,*6F
1515913360.27,44129,7.5,73374.5,-16.65,-18.17,-18.45,0,*69
1515913361.51,44130,7.5,73372.0,-16.65,-18.11,-18.45,0,*67
1515913362.74,44131,7.5,73374.8,-16.65,-18.25,-18.45,0,*61
1515913363.95,44132,7.56,73374.3,-16.63,-18.11,-18.45,0,*63
1515913365.21,44133,7.5,73370.8,-16.65,-18.25,-18.55,0,*62
1515913366.45,44134,7.5,73372.8,-16.65,-18.17,-18.45,0,*65
1515913367.68,44135,7.56,73376.0,-16.65,-18.17,-18.45,0,*64
1515913368.94,44136,7.56,73378.8,-16.65,-18.17,-18.55,0,*66
1515913370.2,44137,7.56,73374.0,-16.65,-18.25,-18.55,0,*66
1515913371.41,44138,7.5,73372.0,-16.67,-18.17,-18.49,0,*67
1515913372.65,44139,7.56,73372.3,-16.65,-18.11,-18.45,0,*6E
1515913373.88,44140,7.56,73374.3,-16.65,-18.17,-18.45,0,*66
1515913375.12,44141,7.56,73374.5,-16.65,-18.11,-18.45,0,*61
1515913376.35,44142,7.5,73370.8,-16.65,-18.17,-18.45,0,*64
1515913377.61,44143,7.56,73372.3,-16.65,-18.25,-18.55,0,*65
1515913378.82,44144,7.5,73372.8,-16.63,-18.17,-18.45,0,*64
1515913380.08,44145,7.5,73372.8,-16.65,-18.17,-18.55,0,*62
1515913381.34,44146,7.5,73372.8,-16.65,-18.17,-18.55,0,*61
1515913382.55,44147,7.5,73374.5,-16.63,-18.25,-18.45,0,*66
1515913383.79,44148,7.5,73374.5,-16.65,-18.17,-18.45,0,*6E
1515913385.02,44149,7.56,73374.0,-16.65,-18.11,-18.45,0,*69
1515913386.26,44150,7.56,73372.5,-16.65,-18.25,-18.45,0,*66
1515913387.49,44151,7.5,73374.5,-16.65,-18.17,-18.45,0,*66
1515913388.75,44152,7.5,73374.0,-16.65,-18.17,-18.55,0,*64
1515913390.01,44153,7.5,73374.0,-16.65,-18.17,-18.55,0,*65
1515913391.26,44154,7.5,73374.0,-16.65,-18.25,-18.55,0,*63
1515913392.52,44155,7.56,73374.5,-16.65,-18.17,-18.55,0,*63
1515913393.75,44156,7.56,73378.0,-16.67,-18.17,-18.59,0,*6E
1515913394.99,44157,7.5,73372.8,-16.65,-18.11,-18.45,0,*66
1515913396.22,44158,7.5,73374.0,-16.65,-18.17,-18.45,0,*6F
1515913397.49,44159,7.5,73374.0,-16.65,-18.01,-18.45,0,*69
1515913398.72,44160,7.5,73374.0,-16.65,-18.17,-18.45,0,*64
1515913399.96,44161,7.56,73374.3,-16.65,-18.17,-18.45,0,*65
1515913401.17,44162,7.5,73374.8,-16.63,-18.25,-18.45,0,*61
1515913402.4,44163,7.5,73372.5,-16.65,-18.17,-18.45,0,*67
1515913403.64,44164,7.5,73374.0,-16.65,-18.17,-18.45,0,*60
1515913404.88,44165,7.5,73372.5,-16.65,-18.17,-18.45,0,*61
1515913406.13,44166,7.56,73376.8,-16.65,-18.17,-18.55,0,*63
1515913407.39,44167,7.5,73372.3,-16.65,-18.11,-18.55,0,*64
1515913408.63,44168,7.56,73376.5,-16.65,-18.17,-18.45,0,*6C
1515913409.88,44169,7.56,73376.8,-16.65,-18.17,-18.59,0,*60
1515913411.14,44170,7.5,73372.0,-16.65,-18.17,-18.55,0,*64
1515913412.36,44171,7.5,73374.0,-16.63,-18.25,-18.59,0,*6E
1515913413.62,44172,7.56,73374.3,-16.65,-18.25,-18.55,0,*67
1515913414.91,44173,7.5,73372.0,-16.65,-18.31,-18.55,0,*63
1515913416.14,44174,7.56,73374.3,-16.63,-18.17,-18.55,0,*66
1515913417.4,44175,7.5,73374.3,-16.65,-18.25,-18.55,0,*60
1515913418.64,44176,7.5,73372.8,-16.63,-18.25,-18.55,0,*65
1515913419.89,44177,7.56,73374.5,-16.65,-18.25,-18.55,0,*62
1515913421.15,44178,7.56,73374.5,-16.65,-18.17,-18.55,0,*6C
1515913422.41,44179,7.5,73368.5,-16.67,-18.31,-18.59,0,*67
1515913423.66,44180,7.5,73372.3,-16.67,-18.31,-18.65,0,*6E
1515913424.95,44181,7.5,73374.3,-16.65,-18.31,-18.55,0,*6E
1515913426.23,44182,7.56,73376.8,-16.65,-18.31,-18.59,0,*61
1515913427.49,44183,7.5,73372.5,-16.65,-18.25,-18.55,0,*69
1515913428.78,44184,7.5,73372.0,-16.65,-18.31,-18.55,0,*6B
1515913430.01,44185,7.5,73374.5,-16.65,-18.25,-18.65,0,*6C
1515913431.29,44186,7.5,73372.8,-16.65,-18.31,-18.59,0,*65
1515913432.55,44187,7.56,73374.0,-16.65,-18.41,-18.59,0,*63
1515913433.83,44188,7.56,73376.5,-16.65,-18.31,-18.59,0,*6B
1515913435.09,44189,7.5,73374.3,-16.65,-18.41,-18.59,0,*6D
1515913436.3,44190,7.56,73376.0,-16.67,-18.45,-18.65,0,*6C
1515913437.52,44191,7.5,73372.0,-16.67,-18.45,-18.65,0,*6D
1515913438.76,44192,7.56,73376.3,-16.67,-18.35,-18.69,0,*65
1515913440.0,44193,7.5,73374.5,-16.67,-18.35,-18.65,0,*68
1515913441.22,44194,7.5,73372.3,-16.67,-18.45,-18.65,0,*68
1515913442.46,44195,7.56,73376.5,-16.67,-18.35,-18.69,0,*62
1515913443.68,44196,7.5,73374.0,-16.67,-18.45,-18.69,0,*66
1515913444.89,44197,7.5,73372.0,-16.67,-18.45,-18.83,0,*63
1515913446.13,44198,7.5,73370.8,-16.67,-18.35,-18.69,0,*6F
1515913447.37,44199,7.56,73376.3,-16.67,-18.35,-18.65,0,*62
1515913448.61,44200,7.5,73374.5,-16.67,-18.35,-18.69,0,*6D
1515913449.86,44201,7.5,73372.3,-16.67,-18.35,-18.65,0,*60
1515913451.07,44202,7.5,73374.3,-16.67,-18.45,-18.69,0,*68
1515913452.31,44203,7.5,73372.3,-16.67,-18.35,-18.69,0,*6E
1515913453.55,44204,7.5,73376.5,-16.69,-18.45,-18.65,0,*6C
1515913454.77,44205,7.5,73374.3,-16.67,-18.45,-18.69,0,*6F
1515913456.03,44206,7.5,73370.0,-16.67,-18.35,-18.59,0,*68
1515913457.27,44207,7.5,73372.0,-16.67,-18.31,-18.69,0,*6E
1515913458.51,44208,7.5,73374.8,-16.67,-18.35,-18.65,0,*69
1515913459.73,44209,7.5,73372.5,-16.67,-18.45,-18.65,0,*6F
1515913460.97,44210,7.5,73372.3,-16.67,-18.35,-18.69,0,*6C
1515913462.24,44211,7.5,73376.5,-16.69,-18.31,-18.65,0,*6B
1515913463.5,44212,7.5,73374.3,-16.67,-18.35,-18.59,0,*6D
1515913464.74,44213,7.56,73378.5,-16.67,-18.35,-18.65,0,*63
1515913465.98,44214,7.5,73374.0,-16.67,-18.35,-18.65,0,*64
1515913467.25,44215,7.5,73376.3,-16.69,-18.35,-18.65,0,*6B
1515913468.49,44216,7.56,73378.3,-16.67,-18.31,-18.69,0,*6E
1515913469.75,44217,7.5,73374.3,-16.69,-18.21,-18.59,0,*63
1515913470.99,44218,7.5,73372.3,-16.67,-18.35,-18.65,0,*68
1515913472.24,44219,7.56,73376.3,-16.67,-18.31,-18.65,0,*6D
1515913473.48,44220,7.5,73374.8,-16.67,-18.31,-18.65,0,*67
1515913474.73,44221,7.5,73374.0,-16.67,-18.31,-18.65,0,*66
1515913475.99,44222,7.5,73372.5,-16.69,-18.31,-18.65,0,*6B
1515913477.26,44223,7.5,73368.5,-16.69,-18.35,-18.49,0,*60
1515913478.52,44224,7.5,73372.3,-16.67,-18.35,-18.59,0,*68
1515913479.8,44225,7.5,73374.0,-16.69,-18.35,-18.59,0,*67
1515913481.04,44226,7.56,73376.3,-16.67,-18.35,-18.65,0,*65
1515913482.32,44227,7.5,73372.0,-16.69,-18.35,-18.59,0,*65
1515913483.54,44228,7.5,73374.0,-16.67,-18.21,-18.65,0,*6E
1515913484.75,44229,7.5,73372.5,-16.67,-18.21,-18.65,0,*6F
1515913486.04,44230,7.5,73372.8,-16.69,-18.31,-18.59,0,*67
1515913487.3,44231,7.5,73374.8,-16.69,-18.35,-18.65,0,*6D
1515913488.59,44232,7.5,73376.8,-16.69,-18.35,-18.59,0,*61
1515913489.83,44233,7.56,73376.5,-16.67,-18.35,-18.65,0,*61
1515913491.07,44234,7.5,73374.5,-16.67,-18.35,-18.69,0,*6A
1515913492.34,44235,7.5,73372.0,-16.69,-18.31,-18.69,0,*61
1515913493.6,44236,7.5,73376.8,-16.67,-18.35,-18.59,0,*6B
1515913494.86,44237,7.5,73374.8,-16.67,-18.35,-18.59,0,*6A
1515913496.12,44238,7.5,73376.8,-16.69,-18.31,-18.65,0,*60
1515913497.38,44239,7.5,73372.0,-16.69,-18.45,-18.59,0,*6D
1515913498.59,44240,7.5,73372.5,-16.67,-18.45,-18.65,0,*62
1515913499.81,44241,7.5,73374.5,-16.67,-18.45,-18.65,0,*63
1515913501.05,44242,7.56,73378.8,-16.69,-18.45,-18.65,0,*6E
1515913502.31,44243,7.5,73374.3,-16.69,-18.35,-18.69,0,*64
1515913503.6,44244,7.5,73372.3,-16.69,-18.35,-18.59,0,*60
1515913504.86,44245,7.56,73376.0,-16.69,-18.35,-18.69,0,*62
1515913506.13,44246,7.5,73376.0,-16.69,-18.35,-18.65,0,*6D
1515913507.39,44247,7.56,73376.3,-16.69,-18.35,-18.65,0,*6C
1515913508.63,44248,7.5,73376.8,-16.73,-18.49,-18.73,0,*64
1515913509.89,44249,7.56,73376.3,-16.69,-18.45,-18.59,0,*6A
1515913511.13,44250,7.5,73372.5,-16.69,-18.45,-18.69,0,*61
1515913512.37,44251,7.5,73372.8,-16.69,-18.45,-18.69,0,*60
1515913513.61,44252,7.5,73372.0,-16.69,-18.45,-18.65,0,*6F
1515913514.82,44253,7.5,73372.5,-16.67,-18.45,-18.65,0,*60
1515913516.06,44254,7.5,73374.8,-16.69,-18.45,-18.69,0,*65
1515913517.3,44255,7.56,73376.5,-16.69,-18.45,-18.69,0,*64
1515913518.54,44256,7.56,73376.3,-16.69,-18.45,-18.69,0,*67
1515913519.78,44257,7.5,73372.3,-16.69,-18.45,-18.69,0,*66
1515913521.02,44258,7.5,73374.8,-16.69,-18.45,-18.69,0,*69
1515913522.28,44259,7.5,73374.0,-16.69,-18.35,-18.69,0,*6F
1515913523.52,44260,7.5,73374.8,-16.73,-18.49,-18.73,0,*6E
1515913524.76,44261,7.5,73374.8,-16.73,-18.49,-18.69,0,*64
1515913526.0,44262,7.5,73374.5,-16.73,-18.49,-18.73,0,*6C
1515913527.24,44263,7.5,73374.8,-16.69,-18.45,-18.69,0,*61
1515913528.51,44264,7.5,73372.3,-16.69,-18.35,-18.65,0,*6D
1515913529.75,44265,7.5,73374.0,-16.73,-18.41,-18.73,0,*63
1515913531.0,44266,7.5,73376.0,-16.73,-18.41,-18.73,0,*60
1515913532.24,44267,7.5,73372.8,-16.73,-18.41,-18.73,0,*61
1515913533.48,44268,7.5,73372.3,-16.73,-18.49,-18.73,0,*66
1515913534.72,44269,7.56,73378.5,-16.73,-18.49,-18.73,0,*67
1515913535.99,44270,7.5,73372.8,-16.73,-18.55,-18.69,0,*69
1515913537.22,44271,7.5,73374.5,-16.73,-18.49,-18.83,0,*61
1515913538.44,44272,7.5,73374.0,-16.75,-18.49,-18.73,0,*6B
1515913539.68,44273,7.5,73374.5,-16.73,-18.49,-18.73,0,*6C
1515913540.91,44274,7.56,73378.8,-16.73,-18.49,-18.83,0,*64
1515913542.15,44275,7.5,73372.8,-16.73,-18.49,-18.73,0,*6A
1515913543.39,44276,7.5,73374.0,-16.73,-18.41,-18.83,0,*6E
1515913544.61,44277,7.5,73374.0,-16.75,-18.49,-18.73,0,*6E
1515913545.85,44278,7.56,73378.5,-16.73,-18.49,-18.73,0,*67
1515913547.08,44279,7.56,73378.8,-16.73,-18.49,-18.83,0,*69
1515913548.29,44280,7.5,73372.0,-16.75,-18.41,-18.83,0,*61
1515913549.54,44281,7.5,73374.5,-16.73,-18.41,-18.73,0,*69
1515913550.78,44282,7.56,73374.3,-16.73,-18.49,-18.73,0,*62
1515913551.99,44283,7.5,73372.5,-16.75,-18.49,-18.69,0,*6E
1515913553.23,44284,7.56,73374.3,-16.73,-18.49,-18.83,0,*6B
1515913554.46,44285,7.5,73374.8,-16.73,-18.49,-18.83,0,*6A
1515913555.7,44286,7.5,73372.5,-16.73,-18.49,-18.73,0,*66
1515913556.92,44287,7.5,73374.3,-16.75,-18.41,-18.73,0,*69
1515913558.13,44288,7.56,73378.8,-16.75,-18.49,-18.83,0,*61
1515913559.35,44289,7.5,73372.8,-16.75,-18.41,-18.73,0,*67
1515913560.56,44290,7.5,73372.8,-16.75,-18.49,-18.83,0,*68
1515913561.77,44291,7.5,73374.5,-16.75,-18.49,-18.83,0,*69
1515913563.01,44292,7.5,73372.8,-16.73,-18.41,-18.73,0,*6B
1515913564.23,44293,7.5,73374.5,-16.75,-18.49,-18.73,0,*64
1515913565.48,44294,7.5,73374.0,-16.73,-18.41,-18.73,0,*6D
1515913566.71,44295,7.5,73376.5,-16.73,-18.49,-18.69,0,*6F
1515913567.98,44296,7.5,73374.8,-16.73,-18.35,-18.73,0,*6C
1515913569.2,44297,7.5,73372.0,-16.75,-18.41,-18.69,0,*63
1515913570.42,44298,7.5,73372.3,-16.75,-18.49,-18.73,0,*6F
1515913571.66,44299,7.5,73374.5,-16.73,-18.49,-18.69,0,*63
1515913572.9,44300,7.56,73376.5,-16.73,-18.49,-18.73,0,*69
1515913574.12,44301,7.5,73372.0,-16.75,-18.49,-18.73,0,*6E
1515913575.36,44302,7.56,73376.3,-16.73,-18.49,-18.73,0,*6B
1515913576.58,44303,7.5,73370.5,-16.75,-18.41,-18.73,0,*64
1515913577.82,44304,7.5,73374.0,-16.73,-18.49,-18.73,0,*6D
1515913579.04,44305,7.5,73374.8,-16.75,-18.41,-18.73,0,*62
1515913580.28,44306,7.5,73374.3,-16.77,-18.45,-18.79,0,*6D
1515913581.5,44307,7.5,73372.3,-16.75,-18.49,-18.73,0,*68
1515913582.74,44308,7.5,73372.3,-16.73,-18.49,-18.73,0,*61
1515913583.96,44309,7.5,73374.3,-16.75,-18.41,-18.73,0,*6E
1515913585.2,44310,7.5,73372.5,-16.73,-18.49,-18.73,0,*68
1515913586.42,44311,7.5,73372.5,-16.75,-18.49,-18.73,0,*6F
1515913587.7,44312,7.5,73374.3,-16.77,-18.55,-18.89,0,*66
1515913588.94,44313,7.5,73368.8,-16.77,-18.45,-18.79,0,*69
1515913590.2,44314,7.5,73376.5,-16.77,-18.55,-18.79,0,*6F
1515913591.42,44315,7.5,73372.3,-16.75,-18.41,-18.69,0,*68
1515913592.63,44316,7.5,73374.5,-16.75,-18.49,-18.69,0,*63
1515913593.85,44317,7.56,73376.3,-16.75,-18.49,-18.73,0,*69
1515913595.07,44318,7.5,73370.8,-16.75,-18.41,-18.73,0,*6E
1515913596.29,44319,7.5,73374.8,-16.75,-18.41,-18.69,0,*64
1515913597.51,44320,7.56,73376.0,-16.75,-18.41,-18.73,0,*65
1515913598.73,44321,7.5,73374.8,-16.75,-18.49,-18.69,0,*67
1515913599.95,44322,7.5,73372.8,-16.75,-18.41,-18.73,0,*67
1515913601.16,44323,7.5,73374.5,-16.75,-18.49,-18.69,0,*65
1515913602.38,44324,7.56,73378.0,-16.75,-18.41,-18.69,0,*6A
1515913603.63,44325,7.5,73372.3,-16.75,-18.35,-18.69,0,*68
1515913604.84,44326,7.5,73372.3,-16.75,-18.41,-18.69,0,*68
1515913606.06,44327,7.5,73372.0,-16.75,-18.41,-18.69,0,*69
1515913607.28,44328,7.5,73374.3,-16.75,-18.41,-18.69,0,*66
1515913608.5,44329,7.5,73372.8,-16.75,-18.41,-18.69,0,*67
1515913609.72,44330,7.5,73374.0,-16.75,-18.41,-18.69,0,*6F
1515913610.94,44331,7.5,73372.5,-16.75,-18.41,-18.73,0,*65
1515913612.17,44332,7.5,73374.3,-16.77,-18.45,-18.79,0,*6A
1515913613.42,44333,7.56,73376.3,-16.77,-18.41,-18.73,0,*65
1515913614.66,44334,7.5,73374.5,-16.77,-18.45,-18.79,0,*6C
1515913615.89,44335,7.5,73372.5,-16.77,-18.45,-18.79,0,*6D
1515913617.14,44336,7.56,73376.5,-16.77,-18.45,-18.73,0,*64
1515913618.38,44337,7.5,73370.0,-16.77,-18.45,-18.73,0,*65
1515913619.65,44338,7.56,73376.8,-16.77,-18.55,-18.73,0,*6B
1515913620.91,44339,7.5,73368.8,-16.77,-18.55,-18.79,0,*60
1515913622.17,44340,7.5,73372.8,-16.77,-18.55,-18.79,0,*6E
1515913623.43,44341,7.5,73372.5,-16.77,-18.55,-18.79,0,*6F
1515913624.67,44342,7.5,73374.5,-16.79,-18.55,-18.79,0,*62
1515913625.93,44343,7.5,73374.0,-16.77,-18.55,-18.79,0,*6D
1515913627.16,44344,7.5,73374.5,-16.77,-18.45,-18.79,0,*6B
1515913628.4,44345,7.5,73374.5,-16.77,-18.45,-18.79,0,*6A
1515913629.66,44346,7.5,73374.0,-16.77,-18.55,-18.79,0,*68
1515913630.89,44347,7.56,73374.3,-16.77,-18.45,-18.79,0,*68
1515913632.16,44348,7.56,73376.3,-16.77,-18.55,-18.79,0,*66
1515913633.39,44349,7.5,73374.0,-16.77,-18.45,-18.79,0,*66
1515913634.65,44350,7.5,73372.5,-16.77,-18.55,-18.79,0,*6F
1515913635.89,44351,7.5,73374.0,-16.77,-18.45,-18.79,0,*6F
1515913637.12,44352,7.56,73374.5,-16.79,-18.55,-18.79,0,*63
1515913638.36,44353,7.5,73374.3,-16.77,-18.45,-18.79,0,*6D
1515913639.6,44354,7.5,73374.3,-16.77,-18.45,-18.73,0,*60
1515913640.84,44355,7.5,73372.8,-16.79,-18.55,-18.79,0,*64
1515913642.07,44356,7.5,73372.3,-16.77,-18.45,-18.79,0,*68
1515913643.32,44357,7.5,73372.5,-16.79,-18.55,-18.73,0,*6C
1515913644.54,44358,7.5,73374.8,-16.79,-18.41,-18.69,0,*6D
1515913645.75,44359,7.5,73374.3,-16.79,-18.45,-18.79,0,*69
1515913646.99,44360,7.5,73374.0,-16.77,-18.41,-18.73,0,*63
1515913648.24,44361,7.5,73372.0,-16.77,-18.41,-18.73,0,*62
1515913649.48,44362,7.56,73372.3,-16.77,-18.41,-18.69,0,*6A
1515913650.73,44363,7.5,73374.8,-16.77,-18.41,-18.69,0,*6B
1515913651.97,44364,7.5,73372.0,-16.75,-18.25,-18.55,0,*63
1515913653.21,44365,7.5,73374.5,-16.77,-18.45,-18.69,0,*69
1515913654.44,44366,7.5,73374.0,-16.79,-18.45,-18.59,0,*67
1515913655.66,44367,7.56,73378.0,-16.79,-18.45,-18.69,0,*65
1515913656.89,44368,7.5,73374.8,-16.79,-18.41,-18.59,0,*6D
1515913658.17,44369,7.5,73372.5,-16.77,-18.31,-18.69,0,*66
1515913659.4,44370,7.56,73374.3,-16.75,-18.25,-18.55,0,*66
1515913660.65,44371,7.5,73374.3,-16.77,-18.41,-18.73,0,*63
1515913661.86,44372,7.5,73374.3,-16.79,-18.41,-18.79,0,*64
1515913663.11,44373,7.5,73372.3,-16.77,-18.41,-18.69,0,*6A
1515913664.37,44374,7.5,73372.0,-16.77,-18.41,-18.59,0,*6E
1515913665.63,44375,7.5,73372.0,-16.77,-18.41,-18.59,0,*6F
1515913666.87,44376,7.5,73374.8,-16.77,-18.41,-18.69,0,*6F
1515913668.13,44377,7.5,73372.8,-16.77,-18.41,-18.59,0,*6D
1515913669.38,44378,7.5,73374.8,-16.79,-18.31,-18.69,0,*68
1515913670.64,44379,7.5,73374.5,-16.79,-18.31,-18.59,0,*6A
1515913671.9,44380,7.5,73372.3,-16.79,-18.31,-18.59,0,*6C
1515913673.19,44381,7.5,73372.0,-16.77,-18.31,-18.59,0,*63
1515913674.45,44382,7.5,73372.3,-16.77,-18.41,-18.59,0,*67
1515913675.73,44383,7.5,73374.0,-16.77,-18.31,-18.69,0,*62
1515913677.0,44384,7.5,73370.5,-16.77,-18.31,-18.69,0,*65
1515913678.27,44385,7.5,73372.0,-16.77,-18.31,-18.69,0,*64
1515913679.51,44386,7.5,73374.8,-16.75,-18.35,-18.65,0,*6D
1515913680.78,44387,7.56,73376.5,-16.77,-18.31,-18.69,0,*66
1515913682.06,44388,7.56,73376.0,-16.77,-18.31,-18.73,0,*62
1515913683.3,44389,7.56,73374.3,-16.77,-18.41,-18.69,0,*6F
1515913684.56,44390,7.5,73374.5,-16.77,-18.41,-18.59,0,*64
1515913685.81,44391,7.5,73372.3,-16.77,-18.41,-18.73,0,*6D
1515913687.08,44392,7.5,73372.3,-16.77,-18.31,-18.73,0,*69
1515913688.3,44393,7.5,73374.8,-16.79,-18.41,-18.69,0,*6A
1515913689.55,44394,7.5,73374.3,-16.77,-18.41,-18.69,0,*63
1515913690.82,44395,7.5,73374.8,-16.77,-18.31,-18.69,0,*65
1515913692.04,44396,7.56,73374.0,-16.79,-18.41,-18.69,0,*6F
1515913693.31,44397,7.56,73374.3,-16.77,-18.31,-18.69,0,*67
1515913694.6,44398,7.5,73374.8,-16.77,-18.31,-18.59,0,*6B
1515913695.89,44399,7.5,73372.5,-16.77,-18.31,-18.59,0,*6A
1515913697.16,44400,7.5,73372.5,-16.77,-18.31,-18.73,0,*65
1515913698.4,44401,7.5,73374.5,-16.79,-18.41,-18.59,0,*65
1515913699.63,44402,7.56,73376.0,-16.79,-18.41,-18.59,0,*66
1515913700.85,44403,7.5,73372.3,-16.79,-18.41,-18.73,0,*6F
1515913702.07,44404,7.5,73374.8,-16.79,-18.45,-18.69,0,*67